Birmingham, AL

2:46 PM CDT on August 24, 2016 (GMT -0500)
Birmingham International

Weather History for KBHM - February, 2014

Change the Weather History Date:

Wednesday, February 5, 2014

  Actual Average Record
Temperature  
Mean Temperature 45 °F 46 °F  
Max Temperature 60 °F 56 °F 76 °F (1927)
Min Temperature 29 °F 35 °F 6 °F (1996)
Degree Days  
Heating Degree Days 20 20  
Month to date heating degree days 79 100  
Since 1 July heating degree days 2050 1805  
Moisture  
Dew Point 38 °F    
Average Humidity 81    
Maximum Humidity 93    
Minimum Humidity 69    
Precipitation  
Precipitation 0.19 in 0.16 in 3.01 in (1940)
Month to date precipitation 2.30 0.81  
Year to date precipitation 3.86 5.65  
Snow  
Snow 0.00 in 0.00 in - ()
Month to date snowfall 0.0 0.0  
Since 1 July snowfall 2.0 0.7  
Snow Depth 0.00 in    
Sea Level Pressure  
Sea Level Pressure 30.11 in    
Wind  
Wind Speed 13 mph (WNW)    
Max Wind Speed 21 mph    
Max Gust Speed 28 mph    
Visibility 9 miles    
Events Rain    
T = Trace of Precipitation, MM = Missing Value Source: NWS Daily Summary

Daily Weather History Graph

Daily Weather History Graph

Search for Another Location

Airport or City:

Trip Planner

Search our weather history database for the weather conditions in past years. The results will help you decide how hot, cold, wet, or windy it might be!

Date:

Astronomy

Feb. 05, 2014 Rise Set
Actual Time 6:40 AM CST 5:22 PM CST
Civil Twilight 6:14 AM CST 5:48 PM CST
Nautical Twilight 5:44 AM CST 6:17 PM CST
Astronomical Twilight 5:15 AM CST 6:46 PM CST
Moon 10:15 AM CST (2/5) 11:54 PM CST (2/5)
Length of Visible Light 11h 33m
Length of Day
10h 42m
Waxing Crescent, 39% of the Moon is Illuminated
Feb 5
Waxing Crescent
Feb 6
First Quarter
Feb 14
Full
Feb 22
Last Quarter
Mar 1
New

Hourly Weather History & Observations

Time (CST) Temp. Windchill Dew Point Humidity Pressure Visibility Wind Dir Wind Speed Gust Speed Precip Events Conditions
12:01 AM 60.8 °F - 57.2 °F 88% 29.87 in 6.0 mi West 15.0 mph 19.6 mph 0.00 in Rain Rain
12:06 AM 60.8 °F - 57.2 °F 88% 29.88 in 1.8 mi West 13.8 mph 19.6 mph 0.06 in Rain Heavy Rain
12:14 AM 60.8 °F - 57.2 °F 88% 29.86 in 2.0 mi West 11.5 mph - 0.15 in Rain Rain
12:16 AM 60.8 °F - 57.2 °F 88% 29.87 in 3.0 mi West 12.7 mph - 0.16 in Rain Rain
12:31 AM 59.0 °F - 57.2 °F 94% 29.87 in 6.0 mi West 6.9 mph - 0.17 in Rain Light Rain
12:41 AM 59.0 °F - 57.2 °F 94% 29.87 in 5.0 mi SW 5.8 mph - 0.18 in Rain Light Rain
12:53 AM 59.0 °F - 57.9 °F 96% 29.84 in 7.0 mi Calm Calm - 0.19 in Rain Light Rain
1:53 AM 55.9 °F - 54.0 °F 93% 29.88 in 10.0 mi WSW 5.8 mph - 0.00 in   Overcast
2:53 AM 53.1 °F - 50.0 °F 89% 29.93 in 10.0 mi West 15.0 mph - N/A   Overcast
3:21 AM 51.8 °F - 48.2 °F 88% 29.96 in 10.0 mi WNW 16.1 mph - N/A   Overcast
3:53 AM 46.9 °F - 45.0 °F 93% 29.98 in 10.0 mi WNW 15.0 mph 23.0 mph N/A   Overcast
4:53 AM 45.0 °F 38.2 °F 42.1 °F 90% 30.01 in 10.0 mi West 15.0 mph - N/A   Overcast
5:48 AM 44.6 °F 38.4 °F 39.2 °F 81% 30.05 in 10.0 mi West 12.7 mph - N/A   Overcast
5:53 AM 44.1 °F 37.4 °F 39.9 °F 85% 30.05 in 10.0 mi West 13.8 mph - N/A   Overcast
6:12 AM 42.8 °F 36.6 °F 39.2 °F 87% 30.07 in 10.0 mi West 11.5 mph - N/A   Overcast
6:44 AM 42.8 °F 35.4 °F 39.2 °F 87% 30.09 in 10.0 mi WNW 15.0 mph 20.7 mph N/A   Overcast
6:53 AM 42.1 °F 34.9 °F 37.9 °F 85% 30.09 in 9.0 mi WNW 13.8 mph - N/A   Overcast
7:53 AM 41.0 °F 33.9 °F 37.0 °F 86% 30.13 in 6.0 mi WNW 12.7 mph - N/A   Overcast
8:53 AM 37.9 °F 29.6 °F 35.1 °F 89% 30.17 in 10.0 mi WNW 13.8 mph - N/A   Overcast
9:09 AM 37.4 °F 30.8 °F 33.8 °F 87% 30.18 in 7.0 mi WNW 9.2 mph - N/A   Overcast
9:40 AM 39.2 °F 33.0 °F 35.6 °F 87% 30.19 in 7.0 mi WNW 9.2 mph - N/A   Overcast
9:53 AM 39.0 °F 31.8 °F 34.0 °F 82% 30.19 in 7.0 mi WNW 11.5 mph - N/A   Overcast
10:18 AM 39.2 °F 30.8 °F 33.8 °F 81% 30.19 in 10.0 mi WNW 15.0 mph - N/A   Overcast
10:53 AM 39.9 °F 33.4 °F 34.0 °F 79% 30.20 in 10.0 mi NW 10.4 mph - N/A   Overcast
11:53 AM 39.9 °F 32.1 °F 32.0 °F 73% 30.19 in 10.0 mi WNW 13.8 mph 19.6 mph N/A   Overcast
12:53 PM 39.0 °F 30.3 °F 30.9 °F 73% 30.19 in 10.0 mi WNW 16.1 mph - N/A   Overcast
1:53 PM 39.0 °F 30.6 °F 30.0 °F 70% 30.20 in 10.0 mi NW 15.0 mph 19.6 mph N/A   Overcast
2:53 PM 39.0 °F 32.3 °F 30.0 °F 70% 30.23 in 10.0 mi NW 10.4 mph 20.7 mph N/A   Overcast
3:53 PM 37.9 °F 30.5 °F 30.0 °F 73% 30.25 in 10.0 mi NNW 11.5 mph - N/A   Overcast
4:05 PM 37.4 °F 30.3 °F 30.2 °F 75% 30.24 in 10.0 mi NNW 10.4 mph - N/A   Overcast
4:53 PM 37.0 °F 29.3 °F 28.9 °F 73% 30.27 in 10.0 mi NNW 11.5 mph - N/A   Overcast
5:53 PM 37.0 °F 28.9 °F 28.0 °F 70% 30.28 in 10.0 mi NW 12.7 mph 20.7 mph N/A   Overcast
6:53 PM 35.1 °F 26.4 °F 26.1 °F 70% 30.31 in 10.0 mi NNW 12.7 mph 20.7 mph N/A   Overcast
7:53 PM 32.0 °F 21.2 °F 24.1 °F 73% 30.34 in 10.0 mi NNW 16.1 mph 21.9 mph N/A   Overcast
8:53 PM 30.9 °F 20.7 °F 23.0 °F 72% 30.35 in 10.0 mi North 13.8 mph 19.6 mph N/A   Overcast
9:53 PM 30.0 °F 19.5 °F 21.9 °F 72% 30.35 in 10.0 mi North 13.8 mph 20.7 mph N/A   Overcast
10:53 PM 28.9 °F 18.2 °F 21.0 °F 72% 30.36 in 10.0 mi North 13.8 mph - N/A   Overcast
11:53 PM 28.9 °F 19.2 °F 21.0 °F 72% 30.37 in 10.0 mi North 11.5 mph - N/A   Overcast